FENGYUN 2E

Last updated on Sept. 29, 2020, 5:50 a.m. UTC

1 33463U 08066A   20272.93962806 -.00000217  00000-0  00000-0 0  9996
2 33463   4.5544  68.1934 0003331 309.2415  55.2874  1.00279171 43161
UTC
Height (km)
Latitude
Longitude
Inclination
Orbital Period
UTC large
Height (km)
Speed (km/s)
/
Latitude / Longitude
Inclination (degrees)
Orbital Period (minutes)
Azimuth
Elevation
Range (km)
Doppler Factor
iOS Compass Heading
iOS Angle

Next 30 passes for location: Hong Kong

Rise time Rise Azimuth (degrees) Set time Set Azimuth (degrees) Duration Max altitude (degrees)

No matching passes for this satellites